Weather History for Vicksburg, MS

Change the Weather History Date:

Friday, July 12, 2013

  Actual Average Record
Temperature  
Mean Temperature 78 °F 81 °F  
Max Temperature 92 °F 92 °F 99 °F (2011)
Min Temperature 63 °F 71 °F 61 °F (1957)
Degree Days  
Heating Degree Days 0 0  
Month to date heating degree days 0 0  
Since 1 June heating degree days 0 0  
Since 1 July heating degree days 0 0  
Cooling Degree Days 13 16  
Month to date cooling degree days 163 192  
Year to date cooling degree days 934 980  
Since 1 June cooling degree days 604 610  
Growing Degree Days 28 (Base 50)    
Moisture  
Dew Point 68 °F    
Average Humidity 71    
Maximum Humidity 100    
Minimum Humidity 41    
Precipitation  
Precipitation 0.00 in 0.10 in 1.58 in (1985)
Month to date precipitation 0.08 1.41  
Year to date precipitation 40.73 30.70  
Sea Level Pressure  
Sea Level Pressure 29.95 in    
Wind  
Wind Speed 4 mph (North)    
Max Wind Speed 16 mph    
Max Gust Speed 20 mph    
Visibility 5 miles    
Events Fog , Rain    
T = Trace of Precipitation, MM = Missing Value Source: NWS Daily Summary

Daily Weather History Graph

Daily Weather History Graph

Search for Another Location

Airport:

Trip Planner

Search our weather history database for the weather conditions in past years. The results will help you decide how hot, cold, wet, or windy it might be!

Date:

Astronomy

Jul. 12, 2013 Rise Set
Actual Time 6:06 AM CDT 8:13 PM CDT
Civil Twilight 5:38 AM CDT 8:40 PM CDT
Nautical Twilight 5:04 AM CDT 9:14 PM CDT
Astronomical Twilight 4:27 AM CDT 9:51 PM CDT
Moon 10:06 AM CDT (7/12) 10:42 PM CDT (7/12)
Length of Visible Light 15h 02m
Length of Day
14h 06m
Waxing Crescent, 17% of the Moon is Illuminated
Jul 12
Waxing Crescent
Jul 15
First Quarter
Jul 22
Full
Jul 29
Last Quarter
Aug 6
New

Hourly Weather History & Observations

Time (CDT) Temp. Heat Index Dew Point Humidity Pressure Visibility Wind Dir Wind Speed Gust Speed Precip Events Conditions
12:53 AM 72.0 °F - 70.0 °F 93% 29.94 in 3.0 mi Calm Calm - N/A   Clear
1:08 AM 69.8 °F - 69.8 °F 100% 29.91 in 2.5 mi West 3.5 mph - N/A   Clear
1:17 AM 71.6 °F - 69.8 °F 94% 29.92 in 4.0 mi Calm Calm - N/A   Clear
1:39 AM 69.8 °F - 69.8 °F 100% 29.91 in 1.8 mi Calm Calm - 0.01 in   Clear
1:50 AM 71.6 °F - 69.8 °F 94% 29.91 in 3.0 mi Calm Calm - 0.01 in   Clear
1:53 AM 71.1 °F - 70.0 °F 96% 29.93 in 3.0 mi Calm Calm - 0.01 in   Clear
2:03 AM 71.6 °F - 69.8 °F 94% 29.92 in 2.0 mi Calm Calm - N/A   Clear
2:15 AM 69.8 °F - 69.8 °F 100% 29.92 in 5.0 mi SE 3.5 mph - N/A   Clear
2:35 AM 69.8 °F - 69.8 °F 100% 29.91 in 1.8 mi Calm Calm - N/A   Clear
2:45 AM 69.8 °F - 68.0 °F 94% 29.91 in 0.2 mi Calm Calm - N/A Fog Fog
2:53 AM 69.1 °F - 68.0 °F 96% 29.93 in 0.5 mi Calm Calm - N/A Fog Fog
3:21 AM 69.8 °F - 68.0 °F 94% 29.92 in 0.2 mi Calm Calm - N/A Fog Fog
3:27 AM 68.0 °F - 66.2 °F 94% 29.91 in 1.2 mi Calm Calm - N/A   Partly Cloudy
3:43 AM 68.0 °F - 66.2 °F 94% 29.92 in 1.0 mi Calm Calm - N/A   Mist
3:48 AM 68.0 °F - 66.2 °F 94% 29.92 in 2.0 mi Calm Calm - N/A   Clear
3:53 AM 70.0 °F - 68.0 °F 93% 29.94 in 5.0 mi Calm Calm - N/A   Clear
4:32 AM 69.8 °F - 68.0 °F 94% 29.94 in 2.5 mi Calm Calm - N/A   Clear
4:40 AM 69.8 °F - 69.8 °F 100% 29.94 in 4.0 mi Calm Calm - N/A   Clear
4:42 AM 69.8 °F - 68.0 °F 94% 29.94 in 1.5 mi Calm Calm - N/A   Partly Cloudy
4:45 AM 69.8 °F - 68.0 °F 94% 29.94 in 0.8 mi Calm Calm - N/A   Mist
4:53 AM 68.0 °F - 66.9 °F 96% 29.96 in 0.2 mi Calm Calm - N/A Fog Fog
5:09 AM 68.0 °F - 66.2 °F 94% 29.95 in 1.2 mi Calm Calm - N/A   Partly Cloudy
5:19 AM 69.8 °F - 68.0 °F 94% 29.95 in 0.5 mi Calm Calm - N/A Fog Fog
5:31 AM 68.0 °F - 66.2 °F 94% 29.95 in 0.2 mi Calm Calm - 0.00 in Fog , Rain Light Rain
5:53 AM 68.0 °F - 66.9 °F 96% 29.97 in 0.5 mi Calm Calm - 0.00 in Fog Fog
6:53 AM 71.1 °F - 70.0 °F 96% 29.99 in 0.2 mi Calm Calm - N/A Fog Fog
7:53 AM 72.0 °F - 71.1 °F 97% 29.99 in 0.5 mi NNW 3.5 mph - N/A Fog Fog
8:14 AM 73.4 °F - 71.6 °F 94% 29.98 in 1.2 mi Calm Calm - N/A   Overcast
8:24 AM 73.4 °F - 71.6 °F 94% 29.98 in 3.0 mi North 3.5 mph - N/A   Overcast
8:36 AM 73.4 °F - 71.6 °F 94% 29.98 in 5.0 mi Calm Calm - N/A   Overcast
8:53 AM 75.0 °F - 73.0 °F 94% 30.00 in 7.0 mi Calm Calm - N/A   Overcast
9:25 AM 75.2 °F - 73.4 °F 94% 29.97 in 10.0 mi Calm Calm - N/A   Overcast
9:53 AM 81.0 °F 86.2 °F 73.9 °F 79% 29.99 in 10.0 mi Calm Calm - N/A   Scattered Clouds
10:53 AM 86.0 °F 93.8 °F 73.9 °F 67% 29.98 in 10.0 mi Variable 4.6 mph - N/A   Clear
11:53 AM 88.0 °F 97.5 °F 75.0 °F 65% 29.97 in 10.0 mi NNW 5.8 mph - N/A   Partly Cloudy
12:53 PM 90.0 °F 96.9 °F 72.0 °F 55% 29.96 in 10.0 mi North 8.1 mph 18.4 mph N/A   Partly Cloudy
1:53 PM 91.0 °F 96.6 °F 70.0 °F 50% 29.95 in 10.0 mi NNW 8.1 mph 17.3 mph N/A   Partly Cloudy
2:53 PM 91.0 °F 92.6 °F 64.0 °F 41% 29.95 in 10.0 mi North 11.5 mph 18.4 mph N/A   Clear
3:53 PM 91.0 °F 94.3 °F 66.9 °F 45% 29.94 in 10.0 mi North 9.2 mph - N/A   Clear
4:53 PM 90.0 °F 92.8 °F 66.9 °F 46% 29.93 in 10.0 mi North 10.4 mph - N/A   Clear
5:53 PM 89.1 °F 91.0 °F 64.9 °F 45% 29.93 in 10.0 mi NNE 10.4 mph - N/A   Clear
6:53 PM 86.0 °F 86.3 °F 62.1 °F 44% 29.93 in 10.0 mi NNE 6.9 mph - N/A   Clear
7:53 PM 80.1 °F 81.2 °F 62.1 °F 54% 29.95 in 10.0 mi North 3.5 mph - N/A   Clear
8:53 PM 75.0 °F - 64.0 °F 69% 29.95 in 10.0 mi North 3.5 mph - N/A   Clear
9:53 PM 71.1 °F - 64.0 °F 78% 29.96 in 10.0 mi NNW 3.5 mph - N/A   Clear
10:53 PM 66.9 °F - 64.0 °F 90% 29.96 in 10.0 mi NNW 4.6 mph - N/A   Clear
11:53 PM 64.0 °F - 62.1 °F 93% 29.96 in 10.0 mi Calm Calm - N/A   Clear